Meteo pe oră la Allmendingen

Astăzi, 26 Ianuarie, Marţi

Timp Temperatura Precipitaţii Vânt Presiune Umiditate
00:00 -6°C° 0.1 mm 3 m/s 705 mmHg 95%
01:00 -7°C° 0.1 mm 4 m/s 705 mmHg 95%
02:00 -7°C° 0 mm 4 m/s 706 mmHg 94%
03:00 -7°C° 0 mm 4 m/s 706 mmHg 93%
04:00 -7°C° 0 mm 4 m/s 707 mmHg 92%
05:00 -7°C° 0 mm 5 m/s 707 mmHg 91%
06:00 -8°C° 0 mm 6 m/s 707 mmHg 90%
07:00 -8°C° 0 mm 7 m/s 707 mmHg 89%
08:00 -8°C° 0.1 mm 7 m/s 708 mmHg 89%
09:00 -7°C° 0.1 mm 7 m/s 708 mmHg 89%
10:00 -7°C° 0.1 mm 8 m/s 708 mmHg 90%
11:00 -6°C° 0.2 mm 8 m/s 708 mmHg 89%
12:00 -6°C° 0.2 mm 8 m/s 709 mmHg 89%
13:00 -5°C° 0.2 mm 8 m/s 709 mmHg 89%
14:00 -4°C° 0.2 mm 7 m/s 709 mmHg 89%
15:00 -4°C° 0.2 mm 6 m/s 709 mmHg 89%
16:00 -4°C° 0.2 mm 6 m/s 709 mmHg 89%
17:00 -5°C° 0.1 mm 5 m/s 710 mmHg 90%
18:00 -6°C° 0.1 mm 5 m/s 710 mmHg 92%
19:00 -5°C° 0.1 mm 4 m/s 710 mmHg 93%
20:00 -7°C° 0.1 mm 4 m/s 710 mmHg 93%
21:00 -7°C° 0.1 mm 4 m/s 711 mmHg 93%
22:00 -7°C° 0.1 mm 3 m/s 711 mmHg 93%
23:00 -7°C° 0 mm 3 m/s 711 mmHg 93%

Mâine, 27 Ianuarie, Miercuri

Timp Temperatura Precipitaţii Vânt Presiune Umiditate
00:00 -7°C° 0 mm 3 m/s 711 mmHg 93%
01:00 -6°C° 0 mm 2 m/s 710 mmHg 93%
02:00 -7°C° 0 mm 2 m/s 710 mmHg 92%
03:00 -7°C° 0 mm 2 m/s 709 mmHg 92%
04:00 -7°C° 0 mm 2 m/s 709 mmHg 91%
05:00 -7°C° 0 mm 2 m/s 708 mmHg 91%
06:00 -7°C° 0 mm 2 m/s 708 mmHg 91%
07:00 -8°C° 0 mm 3 m/s 708 mmHg 90%
08:00 -7°C° 0 mm 3 m/s 708 mmHg 89%
09:00 -7°C° 0 mm 4 m/s 708 mmHg 88%
10:00 -5°C° 0 mm 4 m/s 708 mmHg 86%
11:00 -6°C° 0.1 mm 5 m/s 707 mmHg 89%
12:00 -5°C° 0.1 mm 5 m/s 707 mmHg 91%
13:00 -4°C° 0.1 mm 5 m/s 706 mmHg 94%
14:00 -4°C° 0.1 mm 5 m/s 706 mmHg 94%
15:00 -4°C° 0.1 mm 5 m/s 706 mmHg 94%
16:00 -2°C° 0.1 mm 5 m/s 706 mmHg 95%
17:00 -2°C° 0.1 mm 5 m/s 706 mmHg 95%
18:00 -2°C° 0.1 mm 5 m/s 706 mmHg 96%
19:00 -2°C° 0.1 mm 4 m/s 706 mmHg 97%
20:00 -2°C° 0 mm 4 m/s 707 mmHg 96%
21:00 -2°C° 0 mm 4 m/s 707 mmHg 96%
22:00 -2°C° 0 mm 4 m/s 707 mmHg 96%
23:00 -2°C° 0.1 mm 4 m/s 707 mmHg 97%

Poimâine, 28 Ianuarie, Joi

Timp Temperatura Precipitaţii Vânt Presiune Umiditate
00:00 -1°C° 0.1 mm 4 m/s 707 mmHg 97%
01:00 0°C° 0.1 mm 3 m/s 707 mmHg 98%
02:00 0°C° 0.2 mm 3 m/s 706 mmHg 98%
03:00 -1°C° 0.2 mm 4 m/s 706 mmHg 99%
04:00 -1°C° 0.2 mm 4 m/s 706 mmHg 99%
05:00 0°C° 0.3 mm 3 m/s 705 mmHg 99%
06:00 +1°C° 0.3 mm 3 m/s 705 mmHg 99%
07:00 +1°C° 0.3 mm 3 m/s 705 mmHg 99%
08:00 0°C° 1 mm 4 m/s 704 mmHg 99%
09:00 0°C° 1 mm 4 m/s 703 mmHg 99%
10:00 0°C° 1 mm 5 m/s 702 mmHg 99%
11:00 0°C° 1.6 mm 5 m/s 702 mmHg 99%
12:00 +1°C° 1.6 mm 6 m/s 701 mmHg 99%
13:00 0°C° 1.6 mm 7 m/s 700 mmHg 99%
14:00 +2°C° 1 mm 7 m/s 700 mmHg 98%
15:00 +1°C° 1 mm 8 m/s 699 mmHg 97%
16:00 +2°C° 1 mm 8 m/s 699 mmHg 97%
17:00 +2°C° 0.5 mm 8 m/s 699 mmHg 96%
18:00 +2°C° 0.5 mm 8 m/s 699 mmHg 96%
19:00 +3°C° 0.5 mm 7 m/s 700 mmHg 96%
20:00 +3°C° 0.1 mm 7 m/s 700 mmHg 96%
21:00 +3°C° 0.1 mm 7 m/s 700 mmHg 95%
22:00 +3°C° 0.1 mm 7 m/s 700 mmHg 95%
23:00 +3°C° 0.1 mm 7 m/s 700 mmHg 95%

29 Ianuarie, Vineri

Timp Temperatura Precipitaţii Vânt Presiune Umiditate
00:00 +3°C° 0.1 mm 7 m/s 700 mmHg 94%
01:00 +3°C° 0.1 mm 7 m/s 700 mmHg 94%
02:00 +3°C° 0.7 mm 6 m/s 699 mmHg 95%
03:00 +3°C° 0.7 mm 6 m/s 698 mmHg 95%
04:00 +3°C° 0.7 mm 6 m/s 698 mmHg 95%
05:00 +3°C° 1.2 mm 7 m/s 698 mmHg 94%
06:00 +4°C° 1.2 mm 8 m/s 698 mmHg 92%
07:00 +4°C° 1.2 mm 8 m/s 698 mmHg 90%
08:00 +4°C° 0 mm 8 m/s 698 mmHg 89%
09:00 +2°C° 0 mm 8 m/s 699 mmHg 87%
10:00 +3°C° 0 mm 7 m/s 700 mmHg 86%
11:00 +3°C° 0 mm 7 m/s 700 mmHg 86%
12:00 +3°C° 0 mm 7 m/s 700 mmHg 85%
13:00 +3°C° 0 mm 7 m/s 700 mmHg 85%
14:00 +3°C° 0 mm 6 m/s 700 mmHg 86%
15:00 +3°C° 0 mm 6 m/s 700 mmHg 86%
16:00 +3°C° 0 mm 6 m/s 700 mmHg 86%
17:00 +2°C° 0.1 mm 6 m/s 701 mmHg 88%
18:00 +2°C° 0.1 mm 6 m/s 701 mmHg 89%
19:00 +1°C° 0.1 mm 6 m/s 701 mmHg 90%
20:00 +1°C° 0.2 mm 6 m/s 701 mmHg 90%
21:00 +1°C° 0.2 mm 6 m/s 701 mmHg 91%
22:00 +1°C° 0.2 mm 6 m/s 701 mmHg 91%
23:00 +1°C° 0.1 mm 6 m/s 701 mmHg 91%

30 Ianuarie, Sâmbătă

Timp Temperatura Precipitaţii Vânt Presiune Umiditate
00:00 +1°C° 0.1 mm 6 m/s 701 mmHg 91%
01:00 +1°C° 0.1 mm 6 m/s 701 mmHg 90%
02:00 +1°C° 0.1 mm 6 m/s 701 mmHg 91%
03:00 +1°C° 0.1 mm 6 m/s 700 mmHg 91%
04:00 0°C° 0.1 mm 5 m/s 700 mmHg 91%
05:00 0°C° 0 mm 5 m/s 700 mmHg 91%
06:00 0°C° 0 mm 5 m/s 700 mmHg 91%
07:00 0°C° 0 mm 5 m/s 700 mmHg 91%
08:00 0°C° 0 mm 5 m/s 700 mmHg 90%
09:00 0°C° 0 mm 4 m/s 701 mmHg 88%
10:00 +1°C° 0 mm 4 m/s 701 mmHg 86%
11:00 +1°C° 0 mm 4 m/s 701 mmHg 84%
12:00 +3°C° 0 mm 4 m/s 700 mmHg 81%
13:00 +4°C° 0 mm 4 m/s 700 mmHg 78%
14:00 +3°C° 0 mm 3 m/s 700 mmHg 81%
15:00 +4°C° 0 mm 2 m/s 700 mmHg 83%
16:00 +3°C° 0 mm 2 m/s 700 mmHg 86%
17:00 +4°C° 0 mm 1 m/s 700 mmHg 88%
18:00 +3°C° 0 mm 1 m/s 701 mmHg 91%
19:00 +1°C° 0 mm 0 m/s 701 mmHg 93%
20:00 +1°C° 0 mm 0 m/s 702 mmHg 94%
21:00 +1°C° 0 mm 0 m/s 702 mmHg 94%
22:00 +1°C° 0 mm 0 m/s 702 mmHg 95%
23:00 0°C° 0 mm 0 m/s 702 mmHg 95%

31 Ianuarie, Duminică

Timp Temperatura Precipitaţii Vânt Presiune Umiditate
00:00 0°C° 0 mm 0 m/s 702 mmHg 95%
01:00 0°C° 0 mm 0 m/s 702 mmHg 95%
02:00 +1°C° 0 mm 1 m/s 701 mmHg 95%
03:00 +1°C° 0 mm 1 m/s 701 mmHg 95%
04:00 +1°C° 0 mm 1 m/s 701 mmHg 96%
05:00 +1°C° 0 mm 1 m/s 701 mmHg 95%
06:00 -1°C° 0 mm 2 m/s 701 mmHg 94%
07:00 -1°C° 0 mm 2 m/s 701 mmHg 94%
08:00 +1°C° 0 mm 2 m/s 700 mmHg 93%
09:00 0°C° 0 mm 3 m/s 700 mmHg 92%
10:00 +1°C° 0 mm 3 m/s 699 mmHg 91%
11:00 0°C° 0.1 mm 4 m/s 698 mmHg 92%
12:00 +1°C° 0.1 mm 4 m/s 697 mmHg 93%
13:00 +1°C° 0.1 mm 5 m/s 696 mmHg 94%
14:00 +1°C° 0.9 mm 5 m/s 695 mmHg 94%
15:00 +1°C° 0.9 mm 5 m/s 695 mmHg 95%
16:00 +1°C° 0.9 mm 5 m/s 694 mmHg 95%
17:00 +2°C° 1.4 mm 5 m/s 694 mmHg 94%
18:00 +2°C° 1.4 mm 6 m/s 694 mmHg 94%
19:00 +2°C° 1.4 mm 7 m/s 693 mmHg 93%
20:00 +3°C° 0.2 mm 7 m/s 693 mmHg 92%
21:00 +3°C° 0.2 mm 6 m/s 693 mmHg 92%
22:00 +3°C° 0.2 mm 6 m/s 693 mmHg 92%
23:00 +3°C° 0.2 mm 7 m/s 693 mmHg 91%
Arată mai mult

Formular de consimțământ

Meteoprog și furnizorii noștri de servicii pot stoca și accesa date personale, precum cookies, identificatori de dispozitiv sau alte tehnologii similare pe dispozitivul dumneavoastră și procesa astfel de date pentru a personaliza conținutul și reclamele, dar și pentru a oferi caracteristici de social media și pentru a analiza traficul.

  • Stocarea și/sau accesarea informațiilor pe dispozitivul dumneavoastră

    Cookies, identificatori de dispozitiv sau alte informații pot fi stocate sau accesate pe dispozitiv în scopurile indicate mai sus.

  • Reclame și conținut personalizat, evaluarea reclamelor și a conținutului, informații despre audiențe și dezvoltarea produselor

    Reclamele și conținutul pot fi personalizate pe baza unui profil. Pot fi adăugate date suplimentare pentru a personaliza mai bine reclamele și conținutul. Performanța reclamelor și conținutului poate fi măsurată. Pot fi obținute informații despre utilizatorii care au văzut reclamele și conținutul. Aceste date pot fi utilizate pentru a dezvolta sau îmbunătăți experiența utilizatorilor, sistemele și software-ul.

Dând clic pe ‘Sunt de acord’, permiteți utilizarea cookie-urilor menționate, a identificatorilor de dispozitiv, balizelor web sau altor tehnologii similare. Setările pot fi modificate din browser-ul dispozitivului dumneavoastră.

În anumite scopuri, interesele legitime pot prima asupra consimțământului. Puteți citi mai multe informații în acest sens în Politica privind Confidențialitatea Datelor și Cookie.